Content
SEND FEEDBACK

Daily
Averages
Monthly
Summary
United States of America

HEALY, ALASKA


Home > North America > United States > Alaska
Elevation: 1413 feet     Latitude: 63 53N     Longitude: 149 01W

WEATHER
 
SELECT A DAY
Number of Records: 420,140;   Date Range: 11/7/95 - 9/30/14
 
SHARE

PRINT THIS DATA

[ ← Previous Day ]
WEATHER ALMANAC - JANUARY 31, 2013
[ Next Day → ]
[ °C ]   °F
Weather ElementAverageHighLow
Temperature15 °F28.4 °F (12:56 am)5 °F (2:16 am)
Dewpoint12.7 °F28.4 °F (12:56 am)1.4 °F (1:36 am)
Humidity91.1 %100 % (12:36 am)58 % (1:16 am)
Barometer29.75 in29.97 in (11:56 pm)29.58 in (12:36 am)
Wind Speed5 mph16.1 mph (12:36 pm)
Wind Gust21.9 mph (12:36 pm)
Weather ElementAverage
Visibility8.4 mi
Wind DirectionESE (109.1 °)

Weather ElementTotal
Precipitation---
Heating Degree Days48.3 (Base 65)
Averaged from 69 records on January 31, 2013
WEATHER CONDITIONS BREAKOUT
WIND DIRECTION BREAKOUT
WEATHER BY HOUR - JANUARY 31, 2013
[ °C ]   °F
Local TimeTemperatureDewpointHumidityBarometerVisibilityWind DirectionWind SpeedGust SpeedPrecipitationEventsConditions
12:36 AM21.2 °F21.2 °F100 %29.58 in10.0 miCalmOvercast
12:56 AM28.4 °F28.4 °F100 %29.58 in10.0 miSE (140°)3.5 mphOvercast
1:16 AM17.6 °F5.0 °F58 %29.58 in10.0 miNorth (10°)4.6 mphOvercast
1:36 AM8.6 °F1.4 °F73 %29.59 in10.0 miNNE (20°)4.6 mphOvercast
1:56 AM6.8 °F1.4 °F79 %29.60 in10.0 miNNE (20°)3.5 mphOvercast
2:16 AM5.0 °F1.4 °F85 %29.60 in10.0 miCalmOvercast
2:36 AM5.0 °F1.4 °F85 %29.60 in10.0 miCalmOvercast
2:56 AM6.8 °F3.2 °F85 %29.61 in10.0 miCalmOvercast
3:16 AM8.6 °F5.0 °F85 %29.61 in10.0 miCalmOvercast
3:36 AM8.6 °F3.2 °F79 %29.61 in10.0 miCalmOvercast
3:56 AM8.6 °F3.2 °F79 %29.61 in10.0 miCalmScattered Clouds
4:16 AM6.8 °F3.2 °F85 %29.62 in10.0 miCalmClear
4:36 AM6.8 °F3.2 °F85 %29.62 in10.0 miCalmClear
4:56 AM6.8 °F5.0 °F92 %29.62 in10.0 miCalmMostly Cloudy
5:16 AM6.8 °F5.0 °F92 %29.63 in10.0 miCalmScattered Clouds
5:36 AM6.8 °F5.0 °F92 %29.63 in10.0 miCalmMostly Cloudy
5:56 AM8.6 °F6.8 °F92 %29.64 in10.0 miCalmOvercast
6:16 AM8.6 °F8.6 °F100 %29.64 in10.0 miCalmOvercast
6:36 AM10.4 °F8.6 °F92 %29.64 in10.0 miCalmOvercast
6:56 AM12.2 °F10.4 °F92 %29.65 in10.0 miCalmOvercast
7:16 AM12.2 °F10.4 °F92 %29.65 in10.0 miCalmOvercast
7:36 AM12.2 °F10.4 °F92 %29.66 in10.0 miCalmOvercast
7:56 AM15.8 °F12.2 °F86 %29.66 in10.0 miCalmOvercast
8:16 AM15.8 °F14.0 °F93 %29.67 in10.0 miCalmMostly Cloudy
8:36 AM15.8 °F14.0 °F93 %29.67 in10.0 miCalmOvercast
8:56 AM17.6 °F14.0 °F86 %29.68 in10.0 miCalmOvercast
9:16 AM17.6 °F14.0 °F86 %29.69 in10.0 miCalmOvercast
9:36 AM17.6 °F14.0 °F86 %29.70 in10.0 miCalmOvercast
9:56 AM17.6 °F15.8 °F93 %29.70 in10.0 miCalmOvercast
10:16 AM21.2 °F19.4 °F93 %29.71 in10.0 miCalmOvercast
10:36 AM21.2 °F19.4 °F93 %29.72 in10.0 miCalmOvercast
10:56 AM19.4 °F17.6 °F93 %29.73 in10.0 miCalmOvercast
11:16 AM19.4 °F15.8 °F86 %29.74 in7.0 miCalmOvercast
11:36 AM19.4 °F15.8 °F86 %29.75 in1.5 miCalmOvercast
11:56 AM17.6 °F15.8 °F93 %29.75 in4.0 miNorth (10°)5.8 mphOvercast
12:16 PM15.8 °F12.2 °F86 %29.76 in3.0 miNorth (360°)13.8 mph19.6 mphOvercast
12:36 PM15.8 °F14.0 °F93 %29.77 in1.8 miNorth (360°)16.1 mph21.9 mphOvercast
12:56 PM15.8 °F14.0 °F93 %29.78 in1.5 miNorth (360°)11.5 mph18.4 mphOvercast
1:16 PM15.8 °F14.0 °F93 %29.79 in1.0 miNorth (360°)11.5 mph19.6 mphOvercast
1:36 PM15.8 °F15.8 °F100 %29.79 in1.0 miNorth (360°)12.7 mph17.3 mphOvercast
1:56 PM17.6 °F15.8 °F93 %29.80 in1.5 miNorth (350°)9.2 mph17.3 mphOvercast
2:16 PM17.6 °F15.8 °F93 %29.80 in2.0 miNorth (350°)9.2 mph16.1 mphOvercast
2:36 PM19.4 °F17.6 °F93 %29.81 in5.0 miNorth (360°)6.9 mphOvercast
2:56 PM19.4 °F15.8 °F86 %29.81 in10.0 miNorth (10°)5.8 mphMostly Cloudy
3:16 PM19.4 °F15.8 °F86 %29.82 in10.0 miNorth (10°)5.8 mphOvercast
3:36 PM17.6 °F15.8 °F93 %29.83 in10.0 miNorth (360°)6.9 mphOvercast
3:56 PM19.4 °F15.8 °F86 %29.83 in10.0 miNNE (30°)5.8 mphOvercast
4:16 PM17.6 °F15.8 °F93 %29.83 in10.0 miNorth (360°)8.1 mphOvercast
4:36 PM15.8 °F14.0 °F93 %29.84 in9.0 miNorth (360°)12.7 mph18.4 mphOvercast
5:16 PM15.8 °F14.0 °F93 %29.85 in10.0 miNorth (360°)8.1 mph16.1 mphOvercast
5:36 PM15.8 °F15.8 °F100 %29.85 in10.0 miNorth (350°)9.2 mphOvercast
6:16 PM15.8 °F15.8 °F100 %29.86 in5.0 miNorth (10°)12.7 mph21.9 mphOvercast
6:36 PM15.8 °F15.8 °F100 %29.87 in10.0 miNorth (360°)11.5 mph17.3 mphOvercast
6:56 PM15.8 °F14.0 °F93 %29.88 in10.0 miNorth (360°)10.4 mph18.4 mphOvercast
7:16 PM15.8 °F14.0 °F93 %29.88 in10.0 miNorth (360°)10.4 mph17.3 mphOvercast
7:36 PM15.8 °F15.8 °F100 %29.89 in6.0 miNorth (360°)10.4 mphOvercast
7:56 PM15.8 °F15.8 °F100 %29.89 in3.0 miNorth (350°)6.9 mphOvercast
8:16 PM15.8 °F15.8 °F100 %29.89 in6.0 miNorth (10°)9.2 mph18.4 mphOvercast
8:36 PM15.8 °F15.8 °F100 %29.89 in10.0 miNorth (10°)15.0 mph18.4 mphOvercast
8:56 PM15.8 °F15.8 °F100 %29.90 in10.0 miNorth (10°)12.7 mph18.4 mphOvercast
9:16 PM15.8 °F15.8 °F100 %29.91 in10.0 miNorth (10°)8.1 mphOvercast
9:36 PM17.6 °F15.8 °F93 %29.91 in10.0 miNorth (10°)9.2 mphOvercast
9:56 PM17.6 °F15.8 °F93 %29.92 in10.0 miNorth (10°)8.1 mphOvercast
10:16 PM17.6 °F15.8 °F93 %29.93 in10.0 miNNE (20°)8.1 mphOvercast
10:36 PM17.6 °F15.8 °F93 %29.93 in10.0 miNorth (10°)10.4 mphOvercast
10:56 PM17.6 °F15.8 °F93 %29.94 in10.0 miNorth (10°)6.9 mphOvercast
11:16 PM17.6 °F15.8 °F93 %29.95 in10.0 miNorth (360°)5.8 mphOvercast
11:36 PM17.6 °F15.8 °F93 %29.96 in6.0 miNorth (10°)9.2 mphOvercast
11:56 PM17.6 °F15.8 °F93 %29.97 in4.0 miNorth (360°)6.9 mphOvercast
Hourly data recorded from PAIN, located miles away from Healy, Alaska







STORIES FROM OUR PARTNERS